Location: Champs
(48.8539°N, 2.6040°E)
Time: 04:39:31
(UTC+00:00)

USA 305 - Pass Details

Date: 26 October 2021
Orbit: 563 x 570 km, 53.9° (Epoch: 28 November)

Event Time Altitude Azimuth Distance (km) Brightness Sun altitude
Exits shadow 05:42:31 - 261° (W) 1,967 5.0 -7.9°
Reaches altitude 10° 05:42:47 10° 262° (W) 1,870 4.9 -7.9°
Maximum altitude 05:46:58 57° 341° (NNW) 674 3.1 -7.2°
Drops below altitude 10° 05:51:12 10° 61° (ENE) 1,878 6.4 -6.5°
Sets 05:53:29 0° 66° (ENE) 2,778 7.4 -6.2°
